Metropolitan Oakland International Airport Oakland US
ICAO: KOAK
IATA: OAK
Category: Large
Scheduled Services: Yes

Elevation: 9 ft
TransAlt. 18000 ft.

Airport Communications:
NORCAL APP:31.76
NORCAL APP:125.35
ATIS:133.775
CLNC DEL:121.1
NORCAL DEP:120.9
GND:121.75
OAKLAND RDO:122
OAKLAND TWR:118.3
UNICOM:122.95

KOAK Zoom In..

Runways:

(A) RW 09L length 5458 ft width 150 ft
---- / hdg 96

(B) RW 09R length 6213 ft width 150 ft
---- / hdg 96

(C) RW 11 length 10001 ft width 150 ft
ILS 111.90 / hdg 114

(D) RW 15 length 3376 ft width 75 ft
---- / hdg 148

(E) RW 27L length 6213 ft width 150 ft
---- / hdg 276

(F) RW 27R length 5458 ft width 150 ft
ILS 109.90 / hdg 276

(G) RW 29 length 10001 ft width 150 ft
ILS 108.70 / hdg 294

(H) RW 33 length 3376 ft width 75 ft
---- / hdg 328

Location; KOAK
Day. 24 / Time. 13.53 Zulu
* Altimeter: 30.03
* Temperature: 12° c. 53.6°f.
* Wind from: 260° Speed 06 kn.
Dewpoint: 09° c.
Visibility: 9 Statute Miles.
Clouds: Overcast 1600 ft.

KOAK 241353Z 26006KT 9SM OVC016 12/09 A3003 RMK AO2 SLP168 T01220094


Wind From 260°
Speed 06 kn.

 
 
jpsmedia.com for Web Design SOUNDCLOUD worldairports.se 2018   terms of use